Weather History for KFCM - May, 2013

Change the Weather History Date:

Tuesday, May 21, 2013

  Actual Average Record
Temperature  
Mean Temperature 56 °F -  
Max Temperature 63 °F 67 °F 84 °F (2007)
Min Temperature 48 °F 47 °F 39 °F (2003)
Degree Days  
Heating Degree Days 8    
Growing Degree Days 6 (Base 50)    
Moisture  
Dew Point 54 °F    
Average Humidity 91    
Maximum Humidity 94    
Minimum Humidity 82    
Precipitation  
Precipitation 0.21 in - - ()
Sea Level Pressure  
Sea Level Pressure 29.61 in    
Wind  
Wind Speed 7 mph (NE)    
Max Wind Speed 12 mph    
Max Gust Speed -    
Visibility 6 miles    
Events Rain    
Averages and records for this station are not official NWS values.
T = Trace of Precipitation, MM = Missing Value Source: NWS Daily Summary

Daily Weather History Graph

Daily Weather History Graph

Search for Another Location

Airport or City:

Trip Planner

Search our weather history database for the weather conditions in past years. The results will help you decide how hot, cold, wet, or windy it might be!

Date:

Astronomy

May. 21, 2013 Rise Set
Actual Time 5:38 AM CDT 8:42 PM CDT
Civil Twilight 5:04 AM CDT 9:17 PM CDT
Nautical Twilight 4:19 AM CDT 10:02 PM CDT
Astronomical Twilight 3:25 AM CDT 10:56 PM CDT
Moon 4:48 PM CDT (5/21) 3:17 AM CDT (5/21)
Length of Visible Light 16h 13m
Length of Day
15h 03m
Waxing Gibbous, 84% of the Moon is Illuminated
May 21
Waxing Gibbous
May 24
Full
May 31
Last Quarter
Jun 8
New
Jun 16
First Quarter

Hourly Weather History & Observations

Time (CDT) Temp. Dew Point Humidity Pressure Visibility Wind Dir Wind Speed Gust Speed Precip Events Conditions
12:53 AM 60.1 °F 55.9 °F 86% 29.53 in 10.0 mi East 5.8 mph - N/A   Partly Cloudy
1:53 AM 59.0 °F 57.0 °F 93% 29.51 in 10.0 mi East 6.9 mph - N/A   Clear
2:53 AM 57.9 °F 55.9 °F 93% 29.50 in 10.0 mi ENE 5.8 mph - N/A   Scattered Clouds
3:53 AM 59.0 °F 57.0 °F 93% 29.51 in 10.0 mi ENE 9.2 mph - N/A   Overcast
4:53 AM 59.0 °F 57.0 °F 93% 29.50 in 9.0 mi ENE 5.8 mph - N/A   Overcast
5:41 AM 60.8 °F 57.2 °F 88% 29.51 in 9.0 mi East 4.6 mph - N/A   Overcast
5:53 AM 60.1 °F 57.0 °F 90% 29.51 in 9.0 mi ENE 6.9 mph - N/A   Overcast
6:53 AM 60.1 °F 57.0 °F 90% 29.52 in 10.0 mi East 5.8 mph - N/A   Overcast
7:41 AM 60.8 °F 57.2 °F 88% 29.53 in 10.0 mi East 6.9 mph - N/A   Overcast
7:53 AM 60.1 °F 57.0 °F 90% 29.53 in 10.0 mi East 4.6 mph - N/A   Overcast
8:53 AM 62.1 °F 57.9 °F 86% 29.53 in 10.0 mi East 6.9 mph - N/A   Overcast
9:53 AM 63.0 °F 57.9 °F 84% 29.55 in 10.0 mi SE 4.6 mph - N/A   Overcast
10:11 AM 62.6 °F 57.2 °F 82% 29.55 in 10.0 mi SE 3.5 mph - N/A   Overcast
10:53 AM 60.1 °F 55.9 °F 86% 29.56 in 10.0 mi NNE 6.9 mph - N/A   Overcast
11:00 AM 60.8 °F 55.4 °F 82% 29.56 in 10.0 mi NNE 8.1 mph - N/A   Overcast
11:31 AM 59.0 °F 55.4 °F 88% 29.56 in 9.0 mi NE 8.1 mph - 0.01 in Rain Light Rain
11:53 AM 59.0 °F 55.0 °F 87% 29.57 in 9.0 mi NNE 6.9 mph - 0.01 in   Overcast
12:34 PM 57.2 °F 55.4 °F 94% 29.58 in 2.0 mi Calm Calm - 0.01 in Rain Light Rain
12:40 PM 57.2 °F 55.4 °F 94% 29.58 in 1.5 mi NNW 3.5 mph - 0.02 in Rain Light Rain
12:51 PM 57.2 °F 55.4 °F 94% 29.59 in 1.2 mi NNE 5.8 mph - 0.02 in Rain Light Rain
12:53 PM 57.9 °F 55.0 °F 90% 29.59 in 1.5 mi NNE 5.8 mph - 0.02 in Rain Light Rain
1:00 PM 57.2 °F 55.4 °F 94% 29.58 in 2.5 mi North 8.1 mph - 0.00 in   Overcast
1:08 PM 57.2 °F 55.4 °F 94% 29.58 in 5.0 mi NNE 8.1 mph - 0.00 in   Overcast
1:50 PM 57.2 °F 55.4 °F 94% 29.60 in 2.5 mi NNE 6.9 mph - 0.01 in Rain Light Rain
1:53 PM 57.9 °F 55.0 °F 90% 29.60 in 2.0 mi NNE 8.1 mph - 0.01 in Rain Light Rain
2:02 PM 57.2 °F 55.4 °F 94% 29.60 in 2.5 mi NNE 9.2 mph - 0.00 in Rain Light Rain
2:06 PM 57.2 °F 55.4 °F 94% 29.60 in 3.0 mi NE 8.1 mph - 0.00 in Rain Light Rain
2:41 PM 60.8 °F 55.4 °F 82% 29.60 in 9.0 mi NE 8.1 mph - 0.00 in   Overcast
2:51 PM 60.8 °F 57.2 °F 88% 29.60 in 9.0 mi NNE 9.2 mph - 0.00 in   Overcast
2:53 PM 60.1 °F 57.0 °F 90% 29.61 in 9.0 mi NNE 9.2 mph - 0.00 in   Overcast
3:53 PM 59.0 °F 55.0 °F 87% 29.62 in 10.0 mi NNE 6.9 mph - N/A   Overcast
4:32 PM 59.0 °F 53.6 °F 82% 29.63 in 10.0 mi NE 6.9 mph - N/A   Overcast
4:45 PM 59.0 °F 55.4 °F 88% 29.64 in 9.0 mi North 6.9 mph - 0.01 in Rain Light Rain
4:53 PM 57.9 °F 55.0 °F 90% 29.64 in 9.0 mi North 5.8 mph - 0.02 in Rain Light Rain
5:02 PM 57.2 °F 55.4 °F 94% 29.64 in 1.8 mi North 5.8 mph - 0.03 in Rain Rain
5:10 PM 57.2 °F 55.4 °F 94% 29.64 in 2.0 mi NE 5.8 mph - 0.04 in Rain Light Rain
5:18 PM 57.2 °F 55.4 °F 94% 29.64 in 2.0 mi North 6.9 mph - 0.04 in Rain Light Rain
5:27 PM 57.2 °F 55.4 °F 94% 29.64 in 6.0 mi NNE 9.2 mph - 0.04 in   Overcast
5:31 PM 57.2 °F 55.4 °F 94% 29.64 in 7.0 mi NNE 8.1 mph - 0.04 in   Overcast
5:41 PM 57.2 °F 53.6 °F 88% 29.64 in 8.0 mi North 6.9 mph - 0.04 in   Overcast
5:53 PM 55.9 °F 53.1 °F 90% 29.64 in 7.0 mi NNW 8.1 mph - 0.04 in Rain Light Rain
6:05 PM 55.4 °F 53.6 °F 94% 29.64 in 2.0 mi North 8.1 mph - 0.02 in Rain Light Rain
6:19 PM 55.4 °F 53.6 °F 94% 29.64 in 1.5 mi NNE 10.4 mph - 0.05 in Rain Light Rain
6:24 PM 55.4 °F 51.8 °F 88% 29.64 in 2.0 mi NNE 8.1 mph - 0.05 in Rain Light Rain
6:33 PM 55.4 °F 51.8 °F 88% 29.64 in 3.0 mi NNE 8.1 mph - 0.06 in Rain Light Rain
6:44 PM 53.6 °F 51.8 °F 94% 29.64 in 5.0 mi NNE 11.5 mph - 0.06 in   Overcast
6:53 PM 54.0 °F 51.1 °F 90% 29.65 in 7.0 mi NNE 10.4 mph - 0.06 in   Overcast
7:25 PM 53.6 °F 51.8 °F 94% 29.65 in 9.0 mi NNE 9.2 mph - N/A   Overcast
7:42 PM 53.6 °F 51.8 °F 94% 29.66 in 1.8 mi NNE 6.9 mph - 0.00 in Rain Light Rain
7:53 PM 53.1 °F 50.0 °F 89% 29.67 in 1.8 mi NNE 6.9 mph - 0.00 in Rain Light Rain
8:02 PM 53.6 °F 50.0 °F 88% 29.67 in 2.5 mi NNE 6.9 mph - 0.00 in   Overcast
8:31 PM 51.8 °F 50.0 °F 94% 29.68 in 1.8 mi NNE 8.1 mph - 0.01 in Rain Light Rain
8:38 PM 51.8 °F 50.0 °F 94% 29.68 in 2.5 mi NNE 6.9 mph - 0.01 in Rain Light Rain
8:53 PM 52.0 °F 50.0 °F 93% 29.68 in 3.0 mi NNE 8.1 mph - 0.02 in Rain Light Rain
9:04 PM 51.8 °F 50.0 °F 94% 29.68 in 2.5 mi NNE 6.9 mph - 0.01 in Rain Light Rain
9:20 PM 51.8 °F 50.0 °F 94% 29.69 in 4.0 mi NNE 6.9 mph - 0.02 in Rain Light Rain
9:37 PM 51.8 °F 48.2 °F 88% 29.69 in 2.5 mi NNE 8.1 mph - 0.03 in Rain Light Rain
9:46 PM 51.8 °F 50.0 °F 94% 29.68 in 5.0 mi NNE 6.9 mph - 0.03 in Rain Light Rain
9:53 PM 52.0 °F 48.9 °F 89% 29.69 in 8.0 mi NNE 6.9 mph - 0.03 in   Overcast
10:53 PM 50.0 °F 48.0 °F 93% 29.69 in 10.0 mi NNE 11.5 mph - N/A   Overcast
11:53 PM 48.9 °F 46.0 °F 90% 29.70 in 10.0 mi NNE 10.4 mph - N/A   Overcast